Hourly Data Report for October 25, 2013

All times are specified in Local Standard Time (LST). Add 1 hour to adjust for Daylight Saving Time where and when it is observed.

KUGAARUK CLIMATE
NUNAVUT

68°32'15.060" N
89°47'47.020" W
15.80 m
2303094
71407
NBB

Download Data

Hourly Data (October 2013)
Hourly Data Report for October 25, 2013
Temp Definition
°C
Dew Point Temp Definition
°C
Rel Hum Definition
%
Wind Dir Definition
10's deg

Wind Spd Definition
km/h
Visibility Definition
km
Stn Press Definition
kPa
Hmdx Definition


Wind Chill Definition


Weather Definition


TIME
00:00 -5.0 -6.0 93 27 15   100.19   -11 LegendNANA
01:00 -5.3 -6.7 90 28 19   100.18   -12 LegendNANA
02:00 -5.5 -7.0 89 29 15   100.18   -11 LegendNANA
03:00 -5.6 -7.0 90 27 19   100.14   -12 LegendNANA
04:00 -5.4 -6.7 91 26 17   100.17   -11 LegendNANA
05:00 -5.4 -6.5 92 26 13   100.12   -11 LegendNANA
06:00 -5.4 -6.8 90 26 17   100.11   -11 LegendNANA
07:00 -5.7 -6.6 93 27 15   100.09   -11 LegendNANA
08:00 -5.7 -6.6 93 26 20   100.08   -12 LegendNANA
09:00 -6.4 -7.8 90 30 19   100.08   -13 LegendNANA
10:00 -6.8 -8.0 91 27 15   100.08   -13 LegendNANA
11:00 -7.6 -9.0 90 25 13   100.09   -13 LegendNANA
12:00 -7.6 -8.8 91 25 17   100.10   -14 LegendNANA
13:00 -8.4 -9.6 91 26 15   100.10   -15 LegendNANA
14:00 -6.8 -8.3 89 30 22   100.16   -14 LegendNANA
15:00 -6.7 -8.1 90 29 22   100.19   -14 LegendNANA
16:00 -7.0 -8.6 88 30 28   100.18   -15 LegendNANA
17:00 -7.0 -9.0 86 29 26   100.20   -15 LegendNANA
18:00 -7.0 -9.9 80 30 24   100.21   -15 LegendNANA
19:00 -7.4 -10.0 82 30 26   100.21   -16 LegendNANA
20:00 -7.9 -10.1 84 29 24   100.22   -16 LegendNANA
21:00 -8.0 -10.2 84 29 20   100.20   -15 LegendNANA
22:00 -8.3 -10.4 85 29 19   100.19   -16 LegendNANA
23:00 -8.4 -10.3 86 29 20   100.21   -16 LegendNANA

Notes on Data Quality.

Legend

  • E = Estimated
  • M = Missing
  • NA = Not Available
  • ‡ = Partner data that is not subject to review by the National Climate Archives
Date modified: